Погода в Сабрате

Ливия     32°46′14″N   12°32′22″E
темп.,
°C
ветер,
м/с
пор.,
м/с
влажн.,
%
обл.,
%
осадки,
мм/ч
давл.,
гПа
погр.,
м
10 августа, ср
ср1023:00+28в34600 0.0 1015236
02:00+27всв11640 0.0 1014163
05:00+26ссв11730 0.0 1014200
08:00+28св22650 0.0 1015546
11:00+30ссв44510 0.0 10161014
14:00+31ссв55460 0.0 10151079
17:00+31ссв55510 0.0 1014933
20:00+29св44620 0.0 1014586
11 августа, чт
чт1123:00+28в46620 0.0 1014392
02:00+27вюв34600 0.0 1014252
05:00+26вюв23620 0.0 1013146
08:00+27св23560 0.0 1014338
11:00+30ссв43490 0.0 1015833
14:00+31св54450 0.0 1014954
17:00+31ссв65490 0.0 1013843
20:00+29св55590 0.0 1012509
12 августа, пт
пт1223:00+28в45580 0.0 1013288
02:00+27в23590 0.0 1012181
05:00+27св23640 0.0 1012202
08:00+28св22620 0.0 1013599
11:00+30с33500 0.0 10141105
14:00+31с65470 0.0 10131015
17:00+30ссв66490 0.0 1013855
20:00+28св67560 0.0 1013501
13 августа, сб
сб1323:00+28всв34590 0.0 1014303
02:00+26вюв23610 0.0 1013245
05:00+25ю11670 0.0 1014182
08:00+26сз11650 0.0 1015267
11:00+30ссв33490 0.0 1015988
14:00+32ссв54400 0.0 10151015
17:00+31св54400 0.0 1014804
20:00+29всв45470 0.0 1014282
14 августа, вс
вс1423:00+28юв45470 0.0 1014184
02:00+27ююв45490 0.0 1012110
05:00+26з22450 0.0 101240
08:00+28ююз45360 0.0 1013147
11:00+36зюз33190 0.0 1013764
14:00+39с56180 0.0 10111641
17:00+36с67240 0.0 1010437
20:00+31св57500 0.0 1010254